Location: Barrio Las Umbrías
(40.4173°N, 4.8685°W)
Time: 12:08:41
(UTC+00:00)

Cosmos 1782 - Pass Details

Date: 17 August 2022
Orbit: 534 x 544 km, 82.5° (Epoch: 27 September)

Event Time Altitude Azimuth Distance (km) Brightness Sun altitude
Rises 19:47:11 0° 348° (NNW) 2,696 6.9 -6.7°
Reaches altitude 10° 19:49:21 10° 345° (NNW) 1,802 6.0 -7.1°
Maximum altitude 19:53:16 62° 265° (W) 612 3.4 -7.7°
Drops below altitude 10° 19:57:09 10° 185° (S) 1,795 5.2 -8.4°
Sets 19:59:19 0° 182° (S) 2,684 6.1 -8.8°
